CAPE
3 1 0 0 0 3 9 9 28 0 0 0 0 0 0 0 0 0 0 0 0 0 0 0 0 0 0 1 5 16 21 37 81 187 155 105 169 383 432 464 721 765 797 790
6 0 0 0 0 0 3 3 0 0 0 0 0 0 0 0 0 0 0 0 0 0 0 0 0 0 0 0 5 16 27 25 39 102 224 372 357 263 231 343 541 735 720 695
0 0 0 0 0 0 0 0 0 1 0 0 0 0 0 0 0 0 0 0 0 0 0 0 0 0 2 1 1 1 11 14 26 83 134 302 303 269 320 402 542 535 648 642
23 0 3 0 0 0 0 0 0 0 0 0 0 0 0 0 0 0 0 0 0 0 0 1 6 15 23 23 39 55 24 13 18 37 69 142 390 417 415 471 592 632 680 800
4 5 0 0 0 0 0 0 0 0 0 0 0 0 0 0 0 0 0 0 1 4 6 11 12 11 13 20 33 39 51 61 84 103 97 92 268 551 559 589 586 392 474 529
17 12 3 0 0 0 0 0 0 0 0 0 0 0 0 0 0 0 0 1 5 3 8 12 15 20 29 35 35 36 74 75 73 222 167 133 297 464 531 440 175 8 4 1
15 7 0 0 0 0 0 0 0 0 0 0 0 0 1 0 0 0 0 0 10 11 11 7 7 15 18 21 35 41 60 87 92 102 116 47 30 370 194 61 5 3 8 0
15 18 7 0 0 0 0 0 0 0 0 0 2 9 5 0 0 0 0 0 4 10 11 10 11 11 13 30 36 52 65 65 77 88 44 28 40 77 4 1 2 0 1 0
0 1 0 0 0 0 0 0 0 0 0 2 8 0 0 0 0 0 0 1 7 9 10 12 12 16 18 38 48 65 88 86 52 33 30 9 5 1 3 2 8 4 1 0
0 0 0 0 0 0 0 0 0 1 3 0 0 0 0 0 0 0 0 3 8 10 11 9 11 12 15 24 31 29 25 0 4 0 0 0 3 1 1 1 1 2 1 0
0 0 0 0 0 0 0 0 1 0 0 0 0 0 0 0 0 0 3 7 7 8 5 11 10 12 11 16 15 7 1 0 3 0 0 0 0 0 0 0 0 1 2 0
0 0 0 0 0 0 0 2 0 0 0 0 0 0 0 0 0 0 4 8 8 9 9 6 9 10 9 12 13 8 0 2 4 2 0 0 1 3 0 0 0 0 0 0
0 0 1 0 5 2 4 0 0 0 0 0 0 0 0 0 0 0 0 4 9 12 2 5 9 3 11 7 7 5 5 5 5 0 1 2 4 5 7 6 0 0 0 1
0 0 1 0 5 8 0 0 0 0 0 0 0 0 0 0 0 1 0 1 3 10 17 8 5 4 2 2 0 0 1 0 3 4 4 5 7 8 14 15 18 30 5 4
1 1 1 1 21 10 0 0 0 0 0 0 0 0 0 0 0 0 0 0 3 7 11 11 12 5 0 0 1 0 1 2 2 4 5 7 17 23 18 20 20 20 28 9
0 0 0 18 28 0 0 0 0 0 0 0 0 0 0 0 0 0 0 0 1 10 6 11 15 4 2 0 1 0 3 0 0 6 16 8 16 23 22 14 16 19 21 20
0 0 8 52 1 0 0 0 0 0 0 0 0 0 0 0 0 0 0 0 0 1 1 16 3 11 3 2 6 9 15 12 1 6 13 14 10 15 19 19 17 20 21 30
6 9 43 8 0 0 0 0 0 0 0 0 0 0 0 0 0 0 0 0 0 0 0 0 0 0 5 6 8 10 10 10 11 18 14 15 16 6 15 15 15 16 20 15
4 4 0 0 0 0 0 0 0 0 0 0 0 0 0 0 1 2 2 0 0 0 1 0 0 0 2 8 6 17 21 16 17 30 17 11 14 10 15 18 17 17 13 15
0 0 0 0 0 0 0 0 0 0 0 0 0 0 0 1 0 1 0 0 0 0 0 0 0 0 0 5 3 14 19 16 13 35 28 27 27 21 15 8 15 21 26 27
0 0 0 0 0 0 0 0 0 0 0 0 0 0 0 0 2 0 2 0 0 0 0 0 0 0 0 0 3 25 20 14 12 19 29 29 23 23 21 26 22 20 24 22
0 0 0 0 0 0 0 0 0 0 0 0 0 0 0 4 5 5 0 0 1 0 0 0 0 0 0 3 2 22 24 19 23 21 20 25 17 19 22 20 17 17 22 22
1 0 1 0 0 2 0 1 0 0 0 0 1 6 7 6 12 15 13 5 2 0 0 0 0 0 3 21 25 33 34 26 20 20 23 19 18 14 17 17 17 11 11 12
2 2 2 3 7 8 6 5 19 18 8 8 8 8 14 24 31 20 7 0 0 2 1 2 9 4 6 26 36 36 37 38 35 23 25 5 15 13 13 13 17 13 11 9
2 1 3 4 3 7 14 13 26 32 36 26 23 23 6 13 24 13 8 7 0 0 3 2 2 4 28 38 38 40 34 39 42 26 23 22 21 15 16 13 14 8 8 10
1 5 7 3 9 6 5 5 12 20 9 12 18 25 27 21 19 15 11 8 6 4 16 46 32 25 42 28 37 32 38 29 41 36 22 23 20 18 15 13 10 7 8 8
6 1 7 7 5 4 6 9 14 12 11 15 17 17 14 15 18 16 12 22 27 38 48 61 49 30 39 44 42 38 41 42 42 43 22 22 16 14 12 11 10 7 6 7
CIN
-0 -0 -0 -0 -0 -0 -0 -0 -0 -0 -0 -0 -0 -0 -0 -0 -0 -0 -0 -0 -0 -0 -0 -0 -0 -0 -0 -0 -0 -0 -0 -0 -0 -0 -0 -6 -14 -0 -0 -1 -0 -0 -0 -0
-0 -0 -0 -0 -0 -0 -1 -0 -0 -0 -0 -0 -0 -0 -0 -0 -0 -0 -0 -0 -0 -0 -0 -0 -0 -0 -0 -0 -1 -1 -0 -0 -0 -0 -0 -0 -1 -9 -9 -0 -0 -0 -0 -0
-0 -0 -0 -0 -0 -0 -0 -0 -0 -0 -0 -0 -0 -0 -0 -0 -0 -0 -0 -0 -0 -0 -0 -0 -0 -0 -0 -0 -0 -0 -0 -0 -0 -0 -0 -0 -0 -0 -0 -0 -0 -1 -0 -0
-0 -0 -0 -0 -0 -0 -0 -0 -0 -0 -0 -0 -0 -0 -0 -0 -0 -0 -0 -0 -0 -0 -0 -0 -0 -0 -0 -0 -0 -0 -0 -0 -0 -0 -1 -0 -0 -0 -0 -0 -0 -0 -0 -0
-0 -0 -0 -0 -0 -0 -0 -0 -0 -0 -0 -0 -0 -0 -0 -0 -0 -0 -0 -0 -0 -0 -0 -0 -0 -0 -0 -0 -0 -0 -0 -0 -0 -0 -0 -1 -0 -0 -0 -0 -0 -20 -8 -3
-0 -0 -0 -0 -0 -0 -0 -0 -0 -0 -0 -0 -0 -0 -0 -0 -0 -0 -0 -0 -0 -0 -0 -0 -0 -0 -0 -0 -0 -0 -0 -0 -0 -0 -0 -0 -0 -0 -0 -0 -43 -109 -0 -0
-0 -0 -0 -0 -0 -0 -0 -0 -0 -0 -0 -0 -0 -0 -0 -0 -0 -0 -0 -0 -0 -0 -0 -0 -0 -0 -0 -0 -0 -0 -0 -0 -0 -1 -0 -0 -13 -0 -5 -16 -0 -0 -0 -0
-0 -0 -0 -0 -0 -0 -0 -0 -0 -0 -0 -0 -0 -0 -0 -0 -0 -0 -0 -0 -0 -0 -0 -0 -0 -0 -0 -0 -0 -0 -0 -0 -0 -0 -0 -0 -0 -0 -2 -0 -0 -0 -0 -0
-0 -0 -0 -0 -0 -0 -0 -0 -0 -0 -0 -0 -0 -0 -0 -0 -0 -0 -0 -0 -0 -0 -0 -0 -0 -0 -0 -0 -0 -0 -0 -0 -2 -0 -0 -0 -1 -1 -0 -0 -0 -0 -1 -0
-0 -0 -0 -0 -0 -0 -0 -0 -0 -0 -0 -0 -0 -0 -0 -0 -0 -0 -0 -0 -0 -0 -0 -0 -0 -0 -0 -0 -0 -0 -1 -0 -0 -0 -0 -0 -0 -0 -0 -0 -0 -0 -0 -0
-0 -0 -0 -0 -0 -0 -0 -0 -0 -0 -0 -0 -0 -0 -0 -0 -0 -0 -0 -0 -0 -0 -0 -0 -0 -0 -0 -0 -0 -0 -0 -0 -0 -1 -0 -0 -0 -0 -0 -0 -0 -0 -0 -0
-0 -0 -0 -0 -0 -0 -0 -0 -0 -0 -0 -0 -0 -0 -0 -0 -0 -0 -0 -0 -0 -0 -0 -0 -0 -0 -0 -0 -0 -0 -0 -0 -0 -0 -0 -0 -0 -0 -1 -0 -0 -0 -0 -0
-0 -0 -1 -0 -0 -0 -0 -0 -0 -0 -0 -0 -0 -0 -0 -0 -0 -0 -0 -0 -0 -0 -0 -0 -1 -0 -0 -0 -0 -0 -0 -0 -0 -0 -0 -0 -0 -0 -0 -0 -0 -0 -0 -0
-0 -0 -0 -0 -0 -0 -0 -0 -0 -0 -0 -0 -0 -0 -0 -0 -0 -0 -0 -0 -0 -0 -0 -0 -0 -0 -0 -0 -0 -0 -0 -0 -0 -0 -0 -0 -0 -0 -0 -0 -0 -0 -0 -0
-0 -0 -0 -0 -0 -0 -0 -0 -0 -0 -0 -0 -0 -0 -0 -0 -0 -0 -0 -0 -0 -0 -1 -0 -0 -0 -0 -0 -0 -0 -0 -0 -0 -0 -0 -0 -0 -0 -0 -0 -0 -0 -0 -0
-0 -0 -0 -5 -4 -0 -0 -0 -0 -0 -0 -0 -0 -0 -0 -0 -0 -0 -0 -0 -0 -0 -0 -0 -0 -1 -1 -0 -0 -0 -0 -0 -0 -0 -0 -0 -0 -0 -0 -0 -0 -0 -0 -0
-1 -0 -0 -0 -0 -0 -0 -0 -0 -0 -0 -0 -0 -0 -0 -0 -0 -0 -0 -0 -0 -0 -0 -0 -0 -1 -1 -0 -0 -0 -0 -0 -0 -0 -0 -0 -0 -0 -0 -0 -0 -0 -0 -0
-1 -0 -0 -0 -0 -0 -0 -0 -0 -0 -0 -0 -0 -0 -0 -0 -0 -0 -0 -0 -0 -0 -0 -0 -0 -0 -1 -0 -0 -0 -0 -0 -0 -0 -0 -0 -0 -0 -0 -0 -0 -0 -0 -0
-0 -0 -0 -0 -0 -0 -0 -0 -0 -0 -0 -0 -0 -0 -0 -0 -0 -0 -0 -0 -0 -0 -4 -0 -0 -0 -0 -0 -1 -0 -0 -0 -0 -0 -0 -0 -0 -0 -0 -0 -0 -0 -0 -0
-0 -0 -0 -0 -0 -0 -0 -0 -0 -0 -0 -0 -0 -0 -0 -0 -0 -0 -0 -0 -0 -0 -0 -0 -0 -0 -0 -1 -2 -0 -0 -0 -0 -0 -0 -0 -0 -0 -0 -0 -0 -0 -0 -0
-0 -0 -0 -0 -0 -0 -0 -0 -0 -0 -0 -0 -0 -0 -0 -0 -0 -0 -0 -0 -0 -0 -0 -0 -0 -0 -0 -0 -0 -0 -0 -0 -0 -0 -0 -0 -0 -0 -0 -0 -0 -0 -0 -0
-0 -0 -0 -0 -0 -0 -0 -0 -0 -0 -0 -0 -0 -0 -0 -0 -0 -0 -0 -0 -0 -0 -0 -0 -0 -0 -0 -0 -0 -0 -0 -0 -0 -0 -0 -0 -0 -0 -0 -0 -0 -0 -0 -0
-0 -0 -0 -0 -0 -0 -0 -0 -0 -0 -0 -0 -0 -0 -0 -0 -0 -0 -0 -0 -0 -0 -0 -0 -0 -0 -0 -0 -0 -0 -0 -0 -0 -0 -0 -0 -0 -0 -0 -0 -0 -0 -0 -0
-0 -0 -0 -0 -0 -0 -0 -0 -0 -0 -0 -0 -0 -0 -0 -0 -0 -0 -0 -0 -0 -0 -0 -0 -0 -0 -0 -0 -0 -0 -0 -0 -0 -0 -0 -0 -0 -0 -0 -0 -0 -0 -0 -0
-0 -0 -0 -0 -0 -0 -0 -0 -0 -0 -0 -0 -0 -0 -0 -0 -0 -0 -0 -0 -0 -0 -0 -0 -0 -0 -0 -0 -0 -0 -0 -0 -0 -0 -0 -0 -0 -0 -0 -0 -0 -0 -0 -0
-0 -0 -0 -0 -0 -0 -0 -0 -0 -0 -0 -0 -0 -0 -0 -0 -0 -0 -0 -0 -0 -0 -0 -0 -0 -0 -0 -0 -0 -0 -0 -0 -0 -0 -0 -0 -0 -0 -0 -0 -0 -0 -0 -0
-0 -0 -0 -0 -0 -0 -0 -0 -0 -0 -0 -0 -0 -0 -0 -0 -0 -0 -0 -0 -0 -0 -0 -0 -0 -0 -0 -0 -0 -0 -0 -0 -0 -0 -0 -0 -0 -0 -0 -0 -0 -0 -0 -0
Wind_Speed
20 13 11 13 24 22 23 20 19 16 24 13 14 15 12 11 12 14 15 15 16 15 16 17 17 17 17 17 17 16 17 19 16 15 14 12 12 10 13 14 13 15 13 12
15 7 8 13 13 18 21 20 18 19 21 15 14 8 10 12 13 15 17 17 17 17 17 18 18 18 19 19 20 19 19 19 19 18 18 16 14 11 12 13 13 13 13 13
9 11 9 14 20 19 18 17 17 18 17 11 8 11 11 11 15 16 17 17 17 18 18 19 20 19 20 20 20 20 21 21 21 20 19 18 18 17 14 12 14 15 13 14
5 10 10 2 1 13 24 21 18 16 11 10 11 9 10 12 17 16 15 18 20 20 20 21 22 21 21 21 21 21 22 21 20 20 20 19 18 16 12 12 13 13 13 13
6 13 9 6 8 8 13 15 11 9 10 10 6 11 13 15 10 16 18 18 18 19 21 21 22 22 22 22 21 21 21 22 22 19 18 17 17 15 13 12 12 13 13 12
6 7 9 5 17 8 5 9 13 7 5 5 8 12 10 14 16 16 17 17 18 19 20 20 20 20 21 21 21 21 19 18 19 18 18 14 15 15 11 11 11 9 10 10
10 8 6 13 14 11 8 3 11 7 5 7 10 10 14 15 16 17 16 18 18 18 18 20 20 20 21 20 20 19 20 20 17 15 15 14 14 14 12 11 11 12 11 8
10 11 15 16 15 12 8 8 5 4 6 7 9 11 12 16 17 17 18 18 18 16 17 18 18 17 20 19 20 17 17 17 15 13 11 11 14 13 8 11 11 11 11 8
10 9 4 15 11 9 6 2 3 4 6 8 10 11 13 14 16 16 17 16 16 17 19 18 17 15 18 20 18 17 17 14 11 13 12 11 11 10 8 8 9 10 9 9
7 7 11 15 10 5 3 4 3 3 6 7 10 11 13 13 14 13 14 15 16 18 18 18 17 18 18 17 17 15 14 10 10 9 9 8 7 7 6 6 7 7 8 6
12 6 11 14 12 8 8 4 3 3 4 6 8 10 10 11 12 12 12 14 15 16 16 17 18 16 15 14 14 13 12 11 10 4 6 7 6 6 6 6 6 6 6 6
7 12 11 11 12 6 7 7 4 2 3 4 6 8 9 10 10 11 13 13 14 16 17 17 15 14 14 14 13 11 10 8 7 4 4 4 6 6 9 12 10 12 13 10
10 7 8 7 9 8 7 6 4 2 3 6 6 7 7 9 9 11 12 13 15 16 17 16 14 14 11 12 12 11 10 9 6 4 4 5 5 6 7 4 10 9 10 11
8 6 9 11 9 9 7 6 6 4 7 6 5 6 7 8 7 5 9 12 14 14 13 12 11 12 11 11 10 9 8 8 5 5 5 5 5 5 5 6 6 3 2 6
11 11 11 9 8 8 7 7 6 8 6 5 5 4 5 7 8 7 6 9 10 11 10 11 11 13 14 13 10 9 7 5 5 5 5 4 5 4 4 4 4 4 3 2
10 10 11 10 10 10 10 9 9 9 6 5 5 4 6 6 6 6 7 7 9 10 12 11 11 12 13 15 13 10 6 7 6 6 5 4 4 4 3 3 3 3 2 4
10 14 13 13 12 11 10 9 9 8 8 8 7 6 6 6 7 4 6 7 8 10 10 7 12 11 13 11 11 9 7 6 5 7 6 4 4 4 3 2 0 2 4 4
12 12 11 9 8 9 10 10 10 11 11 11 6 3 6 7 7 8 7 8 9 10 6 6 9 13 11 10 10 9 8 7 6 6 5 5 4 4 3 2 2 4 5 6
11 9 7 6 8 10 10 11 12 12 9 5 8 9 9 8 8 8 7 8 10 10 6 11 13 15 13 12 10 9 9 8 7 6 5 4 4 4 4 4 4 5 6 6
10 9 9 11 12 12 13 13 12 12 9 9 9 9 10 10 8 7 8 11 12 9 10 13 15 14 13 12 12 10 10 9 8 6 4 5 5 4 4 5 5 6 6 5
11 11 12 12 13 10 9 7 5 8 9 10 12 13 12 9 7 7 9 10 10 9 9 11 11 11 11 13 13 10 10 9 8 7 6 5 5 5 5 5 5 5 6 6
8 4 5 3 5 8 7 8 12 9 10 11 13 12 11 11 9 10 11 11 9 5 9 10 10 12 13 16 12 10 11 10 8 7 6 6 6 6 6 6 6 6 6 6
3 4 6 6 7 9 8 9 10 12 13 12 12 11 11 11 11 10 9 9 7 8 9 10 12 15 16 11 10 11 10 10 9 8 7 6 6 6 7 7 7 7 7 8
5 7 8 7 6 7 9 9 8 9 9 10 11 10 10 8 7 8 7 6 7 8 10 11 12 15 15 10 10 10 10 10 9 9 8 8 7 7 7 7 8 8 8 9
2 4 5 5 6 6 5 6 6 7 8 10 8 4 4 3 4 5 7 8 11 11 11 13 15 15 10 9 10 10 11 10 10 9 8 7 7 8 7 8 8 8 8 9
5 5 5 6 5 5 5 7 7 4 5 4 4 3 3 4 6 7 8 10 10 12 11 9 9 10 10 11 11 12 11 12 11 9 9 8 8 8 8 8 8 9 9 9
5 2 5 6 1 4 4 5 6 6 6 7 8 7 8 8 9 10 11 10 10 10 10 9 10 11 10 11 11 11 11 11 12 9 9 8 7 7 8 8 9 8 8 9
Wind_Direction
241 277 263 257 213 220 224 222 239 256 262 283 303 310 335 320 301 304 307 315 312 308 305 303 304 304 301 300 302 297 291 295 293 288 282 286 293 287 290 290 281 286 287 285
235 198 257 253 237 229 229 234 234 252 261 281 290 321 304 305 309 309 313 308 305 303 307 310 308 307 305 299 295 292 291 290 289 288 287 285 273 267 274 269 284 289 291 292
215 210 233 259 229 232 233 233 240 250 273 284 295 287 299 320 302 300 300 297 308 313 311 309 308 304 300 300 301 295 289 288 288 287 283 284 283 281 277 291 299 292 290 291
159 150 223 211 9 242 232 235 235 241 256 273 276 302 307 300 297 294 322 322 314 310 304 302 299 297 298 298 294 290 287 286 284 288 293 290 285 281 288 291 289 296 295 294
181 212 298 211 193 195 211 220 207 239 249 264 296 298 289 275 335 337 319 307 304 309 311 310 309 309 303 297 297 298 298 295 291 288 287 293 302 306 305 303 295 293 299 308
189 215 229 14 157 168 124 242 217 214 220 240 288 276 288 346 335 313 307 307 310 312 312 307 305 308 305 304 307 304 302 305 305 308 306 302 318 306 293 286 286 294 292 289
201 226 254 135 122 146 200 114 127 157 201 266 272 289 317 316 305 306 313 312 313 310 313 312 315 316 310 306 302 308 310 305 306 305 298 308 299 288 294 285 281 277 275 272
214 215 237 169 154 196 101 127 154 213 258 277 282 288 297 299 309 314 312 313 316 316 319 317 310 312 310 306 306 301 301 303 306 300 304 298 290 286 263 270 274 277 277 271
198 215 84 171 166 158 122 185 235 276 294 290 299 298 306 311 313 315 315 318 326 325 316 311 313 316 307 309 307 314 302 303 287 288 288 296 284 280 274 266 268 276 270 271
173 201 166 172 142 153 182 206 241 270 289 300 302 316 314 316 310 318 326 330 323 320 317 316 321 322 317 303 306 298 295 286 287 270 281 278 265 265 267 273 270 271 271 266
207 167 180 186 193 197 179 167 231 228 283 310 312 306 310 310 319 327 328 330 329 320 318 318 329 320 310 305 307 305 304 297 291 256 263 272 261 262 260 257 262 282 280 274
210 198 195 203 208 143 177 206 185 246 293 302 298 304 316 317 332 339 334 330 325 326 324 323 316 317 318 317 312 301 288 296 287 280 271 264 274 286 245 251 271 284 279 264
230 164 191 199 150 181 208 174 175 227 264 279 297 314 322 332 344 337 330 337 332 330 324 319 316 316 318 324 321 316 307 300 302 280 281 285 282 285 300 263 255 278 290 287
224 197 177 184 202 180 177 179 162 223 243 252 288 306 330 329 350 313 322 328 328 320 319 323 319 320 323 319 318 315 313 306 304 306 297 290 298 299 301 300 308 304 291 314
194 178 182 216 198 168 188 194 212 235 231 249 273 298 321 324 321 322 329 325 322 311 322 323 329 327 329 324 317 312 311 309 306 291 287 302 292 290 292 306 318 326 314 346
185 190 194 197 185 197 199 207 220 240 233 247 256 265 287 299 314 337 324 322 327 319 316 314 323 324 326 327 321 316 300 279 285 294 291 277 284 289 293 295 312 340 39 75
196 201 205 197 201 209 208 217 225 237 240 237 237 242 265 282 293 285 300 309 305 295 292 311 318 320 327 317 316 315 313 300 278 284 283 286 287 276 277 277 305 79 96 82
185 199 205 192 217 219 227 224 220 229 230 233 227 214 242 251 268 286 295 308 303 294 272 328 316 324 315 320 328 316 309 298 282 274 280 273 271 272 253 235 163 128 118 108
177 195 206 211 202 218 225 236 233 233 236 183 202 224 234 245 256 271 289 299 293 295 337 330 335 318 329 334 325 318 311 303 290 278 267 262 245 247 236 206 175 144 142 147
196 203 211 219 215 216 229 231 224 234 231 207 215 226 237 238 237 255 274 282 277 298 321 325 322 320 329 331 343 317 307 307 296 278 256 254 245 223 225 206 182 161 162 164
204 211 220 224 229 229 227 229 225 230 214 207 215 228 232 234 225 246 259 273 300 313 321 311 317 316 332 332 322 314 307 299 288 276 261 240 244 222 211 198 183 175 173 160
221 253 282 292 249 245 236 225 239 237 233 228 229 234 237 242 242 244 236 252 285 332 321 313 312 334 321 318 314 305 303 296 292 274 262 238 233 222 209 197 187 179 169 158
318 295 269 254 249 257 260 248 242 240 242 239 239 237 235 250 263 268 271 281 305 321 316 304 314 309 311 307 303 297 298 293 288 277 260 242 232 224 211 199 190 179 172 168
302 293 289 289 284 283 277 282 263 252 249 249 245 240 235 240 239 249 278 297 313 309 301 291 300 304 305 300 298 304 302 299 288 279 262 241 232 222 213 198 189 181 179 177
341 295 271 245 273 278 308 310 285 264 262 255 250 222 195 237 276 304 305 298 290 288 297 296 298 303 298 299 299 299 304 302 296 284 267 246 233 220 212 200 191 184 180 180
271 287 323 330 314 321 333 330 318 345 335 334 340 338 315 292 281 279 286 292 291 289 287 293 295 296 296 296 301 300 298 298 296 286 268 251 235 219 207 200 188 183 181 177
270 284 291 306 17 358 360 322 306 314 316 309 301 304 305 302 292 286 284 284 287 290 290 289 288 293 294 296 296 295 299 295 296 289 276 253 234 220 208 200 190 181 177 175